Location: Colossi of Memnon
(25.7167°N, 32.6167°E)
Time: 12:10:45
(UTC+00:00)

Cosmos 1302 Rocket - Pass Details

Date: 05 March 2021
Orbit: 756 x 777 km, 74.0° (Epoch: 09 April)

Event Time Altitude Azimuth Distance (km) Brightness Sun altitude
Exits shadow 02:27:24 59° 294° (WNW) 890 4.0 -23.7°
Maximum altitude 02:28:01 65° 257° (WSW) 851 3.9 -23.5°
Drops below altitude 10° 02:33:14 10° 176° (S) 2,314 6.5 -22.4°
Sets 02:35:37 0° 174° (S) 3,239 7.3 -21.8°
